This demonstration page uses our WeatherBlox Daily Observations layout. Learn more.

40.92945, -100.16068

Hourly Observations for January 17, 2018

Temp ( °F °C ) Dew Point ( °F °C ) Humidity (%) Winds ( mph kmh ) Pressure ( in mb ) Visibility ( mi km ) Precip ( " mm )
12:15 am 00:15 Clear 11 -11.8 2 -16.7 67 67 S 9 15 30.68 1039 10 16.0934 0 0
12:35 am 00:35 Clear 11 -11.8 2 -16.8 67 67 S 9 15 30.65 1038 10 16.0934 0 0
12:55 am 00:55 Clear 11 -11.9 2 -16.8 67 67 SSW 8 13 30.65 1038 10 16.0934 0 0
1:15 am 01:15 Clear 11 -11.5 1 -17 64 64 SSW 7 11 30.65 1038 10 16.0934 0 0
1:35 am 01:35 Clear 11 -11.8 1 -17 66 66 SSW 8 13 30.65 1038 10 16.0934 0 0
1:55 am 01:55 Clear 11 -11.7 1 -17.1 65 65 SSW 8 13 30.62 1037 10 16.0934 0 0
2:15 am 02:15 Clear 11 -11.8 1 -17.2 65 65 SSW 8 13 30.62 1037 10 16.0934 0 0
2:35 am 02:35 Clear 12 -11.3 1 -17.5 60 60 SSW 7 11 30.62 1037 10 16.0934 0 0
2:55 am 02:55 Clear 12 -11.2 1 -17.5 60 60 SSW 13 20 30.62 1037 10 16.0934 0 0
3:15 am 03:15 Clear 12 -11 0 -17.7 58 58 SSW 9 15 30.62 1037 10 16.0934 0 0
3:35 am 03:35 Clear 12 -11.1 0 -18 57 57 S 9 15 30.62 1037 10 16.0934 0 0
3:55 am 03:55 Clear 12 -11.3 -1 -18.1 58 58 SSW 10 17 30.62 1037 10 16.0934 0 0
4:15 am 04:15 Clear 11 -11.5 -1 -18.3 57 57 SSW 13 20 30.62 1037 10 16.0934 0 0
4:35 am 04:35 Clear 11 -11.7 -1 -18.3 58 58 SSW 8 13 30.62 1037 10 16.0934 0 0
4:55 am 04:55 Clear 11 -11.9 -1 -18.2 60 60 SSW 6 9 30.62 1037 10 16.0934 0 0
5:15 am 05:15 Clear 11 -11.7 -1 -18.2 59 59 SSW 6 9 30.62 1037 10 16.0934 0 0
5:35 am 05:35 Clear 10 -12.5 -1 -18.1 63 63 SSW 5 7 30.62 1037 10 16.0934 0 0
5:55 am 05:55 Clear 10 -12.3 -1 -18.1 62 62 SSW 6 9 30.62 1037 10 16.0934 0 0
6:15 am 06:15 Clear 10 -12.2 0 -18 62 62 SSW 7 11 30.59 1036 10 16.0934 0 0
6:35 am 06:35 Clear 10 -12.5 0 -18 64 64 SSW 7 11 30.59 1036 10 16.0934 0 0
6:55 am 06:55 Clear 10 -12.5 -1 -18.1 63 63 SSW 6 9 30.59 1036 10 16.0934 0 0
7:15 am 07:15 Clear 10 -12.5 0 -18 64 64 SSW 8 13 30.59 1036 10 16.0934 0 0
7:35 am 07:35 Clear 9 -12.7 -1 -18.1 64 64 SSW 7 11 30.59 1036 10 16.0934 0 0
7:55 am 07:55 Clear 9 -13 0 -18 66 66 SW 3 6 30.59 1036 10 16.0934 0 0
8:15 am 08:15 Sunny 9 -13 0 -17.8 68 68 Calm 30.59 1036 10 16.0934 0 0
8:35 am 08:35 Sunny 10 -12.2 0 -17.9 63 63 Calm 30.59 1036 10 16.0934 0 0
8:55 am 08:55 Sunny 11 -11.6 1 -17.4 62 62 Calm 30.59 1036 10 16.0934 0 0
9:15 am 09:15 Sunny 13 -10.6 2 -16.7 61 61 Calm 30.59 1036 10 16.0934 0 0
9:35 am 09:35 Sunny 15 -9.7 2 -16.5 58 58 Calm 30.56 1035 10 16.0934 0 0
9:55 am 09:55 Sunny 16 -8.9 3 -16 57 57 SSW 5 7 30.59 1036 10 16.0934 0 0
10:15 am 10:15 Sunny 18 -7.7 4 -15.4 54 54 SW 7 11 30.59 1036 10 16.0934 0 0
10:35 am 10:35 Sunny 19 -7.2 5 -15 54 54 SW 6 9 30.56 1035 10 16.0934 0 0
10:55 am 10:55 Sunny 21 -6.3 7 -14 55 55 SW 8 13 30.53 1034 10 16.0934 0 0
11:15 am 11:15 Sunny 22 -5.4 8 -13.2 55 55 WSW 7 11 30.53 1034 10 16.0934 0 0
11:35 am 11:35 Sunny 24 -4.7 9 -12.9 53 53 WSW 6 9 30.5 1033 10 16.0934 0 0
11:55 am 11:55 Sunny 26 -3.6 10 -12.1 52 52 SW 5 7 30.5 1033 10 16.0934 0 0
12:15 pm 12:15 Sunny 27 -2.8 11 -11.7 51 51 W 5 7 30.5 1033 10 16.0934 0 0
12:35 pm 12:35 Sunny 29 -1.9 12 -11.1 50 50 SW 3 6 30.45 1031 10 16.0934 0 0
12:55 pm 12:55 Sunny 31 -0.8 13 -10.3 49 49 SW 5 7 30.45 1031 10 16.0934 0 0
1:15 pm 13:15 Sunny 32 0 15 -9.7 48 48 S 5 7 30.45 1031 10 16.0934 0 0
1:35 pm 13:35 Sunny 33 0.5 15 -9.2 49 49 SSW 6 9 30.39 1029 10 16.0934 0 0
1:55 pm 13:55 Sunny 33 0.8 15 -9.2 48 48 SSW 5 7 30.39 1029 10 16.0934 0 0
2:15 pm 14:15 Sunny 35 1.8 16 -8.7 46 46 SSW 7 11 30.39 1029 10 16.0934 0 0
2:35 pm 14:35 Sunny 36 2.1 17 -8.3 46 46 SW 6 9 30.39 1029 10 16.0934 0 0
2:55 pm 14:55 Sunny 37 2.5 17 -8.3 45 45 SSW 5 7 30.39 1029 10 16.0934 0 0
3:15 pm 15:15 Sunny 38 3.1 17 -8.1 44 44 SSW 5 7 30.39 1029 10 16.0934 0 0
3:35 pm 15:35 Sunny 38 3.3 18 -8 44 44 SW 6 9 30.33 1027 10 16.0934 0 0
3:55 pm 15:55 Sunny 38 3.4 17 -8.4 42 42 SSW 7 11 30.33 1027 10 16.0934 0 0
4:15 pm 16:15 Sunny 38 3.4 17 -8.1 43 43 SSW 7 11 30.36 1028 10 16.0934 0 0
4:35 pm 16:35 Sunny 38 3.3 19 -7.3 46 46 SSW 7 11 30.33 1027 10 16.0934 0 0
4:55 pm 16:55 Sunny 37 2.7 19 -7.5 47 47 SSW 7 11 30.36 1028 10 16.0934 0 0
5:15 pm 17:15 Sunny 35 1.7 19 -7.2 52 52 S 7 11 30.36 1028 10 16.0934 0 0
5:35 pm 17:35 Sunny 33 0.5 18 -7.7 55 55 SSW 8 13 30.36 1028 10 16.0934 0 0
5:55 pm 17:55 Clear 32 -0.1 17 -8.5 54 54 SSW 7 11 30.39 1029 10 16.0934 0 0
6:15 pm 18:15 Clear 31 -0.5 16 -8.8 54 54 SSW 7 11 30.39 1029 10 16.0934 0 0
6:35 pm 18:35 Clear 30 -0.9 16 -9 55 55 SSW 6 9 30.42 1030 10 16.0934 0 0
6:55 pm 18:55 Clear 30 -1 16 -9 55 55 SSW 6 9 30.42 1030 10 16.0934 0 0
7:15 pm 19:15 Clear 27 -3 16 -8.7 65 65 S 8 13 30.42 1030 10 16.0934 0 0
7:35 pm 19:35 Clear 28 -2.3 18 -7.8 66 66 S 5 7 30.39 1029 10 16.0934 0 0
7:55 pm 19:55 Clear 27 -2.8 18 -7.9 68 68 S 6 9 30.39 1029 10 16.0934 0 0
8:15 pm 20:15 Clear 26 -3.3 18 -7.9 71 71 SSW 6 9 30.42 1030 10 16.0934 0 0
8:35 pm 20:35 Clear 25 -3.7 17 -8.1 72 72 SSW 7 11 30.42 1030 10 16.0934 0 0
8:55 pm 20:55 Clear 27 -2.8 18 -7.8 69 69 SSW 8 13 30.36 1028 10 16.0934 0 0
9:15 pm 21:15 Clear 27 -2.7 18 -7.9 68 68 SSW 8 13 30.36 1028 10 16.0934 0 0
9:35 pm 21:35 Clear 27 -2.8 17 -8.2 67 67 SSW 9 15 30.36 1028 10 16.0934 0 0
9:55 pm 21:55 Clear 26 -3.4 17 -8.6 68 68 SW 7 11 30.39 1029 10 16.0934 0 0
10:15 pm 22:15 Clear 24 -4.5 15 -9.2 70 70 Calm 30.39 1029 10 16.0934 0 0
10:35 pm 22:35 Clear 20 -6.6 14 -9.9 78 78 Calm 30.42 1030 10 16.0934 0 0
10:55 pm 22:55 Clear 19 -7.4 14 -10.2 81 81 Calm 30.39 1029 10 16.0934 0 0
11:15 pm 23:15 Clear 18 -7.7 13 -10.5 81 81 Calm 30.39 1029 10 16.0934 0 0
11:35 pm 23:35 Clear 17 -8.5 12 -11.1 82 82 Calm 30.39 1029 10 16.0934 0 0
11:55 pm 23:55 Clear 19 -7.2 14 -10.2 79 79 Calm 30.36 1028 10 16.0934 0 0

Powered by AerisWeather